User: anonymous
Location: Roanoke
(37.2710°N, 79.9420°W)
Time: 14:27:11
(UTC-04:00)
Language:

Cosmos 1441 Rocket - Orbit

View from above orbital plane
View from above orbital plane
View from above satellite
View from above satellite

Ground track
Ground track

The orbit data is extracted from the following two-line orbital elements,

1 13819U 83010B   14208.82835127  .00002307  00000-0  13572-3 0  9044
2 13819 081.1189 308.8317 0034117 246.2425 113.5222 15.10800650714085
Epoch (UTC): 27 July 2014 19:52:49
Eccentricity: 0.0034117
inclination: 81.1189°
perigee height: 510 km
apogee height: 557 km
right ascension of ascending node: 308.8317°
argument of perigee: 246.2425°
revolutions per day: 15.10800650
mean anomaly at epoch: 113.5222°
orbit number at epoch: 71408

The dashed part of the orbit path shows where the satellite is in the earth's shadow,  

DLR